Location: *
(17.3280°S, 114.7300°W)
Time: 06:36:39
(UTC+00:00)

ASTRO E2 - Pass Details

Date: 05 August 2020
Orbit: 510 x 516 km, 31.4° (Epoch: 20 September)

Event Time Altitude Azimuth Distance (km) Brightness Sun altitude
Exits shadow 13:00:51 27° 271° (W) 992 3.5 -15.1°
Maximum altitude 13:02:36 47° 329° (NNW) 678 3.1 -14.7°
Drops below altitude 10° 13:06:24 10° 44° (NE) 1,714 6.2 -13.8°
Sets 13:08:41 0° 49° (NE) 2,595 7.5 -13.3°
